| time (UTC) | temp C | wind direction | speed KPH | gust KPH | rain 1hr cm | rain 24hr cm | rain mn cm | humidity % | barometer mb |
| 20260503181511 | 23 | 344 | 3.2 | 12.9 | 0.00 | 0.00 | 0.00 | 52 | 1009.6 |
| 20260503181014 | 23 | 286 | 3.2 | 14.5 | 0.00 | 0.00 | 0.00 | 53 | 1009.6 |
| 20260503180524 | 23 | 88 | 4.8 | 14.5 | 0.00 | 0.00 | 0.00 | 51 | 1009.6 |
| 20260503180051 | 23 | 327 | 4.8 | 16.1 | 0.00 | 0.00 | 0.00 | 51 | 1009.6 |
| 20260503175558 | 23 | 331 | 3.2 | 16.1 | 0.00 | 0.00 | 0.00 | 52 | 1009.6 |
| 20260503175500 | 23 | 88 | 4.8 | 16.1 | 0.00 | 0.00 | 0.00 | 53 | 1009.6 |
| 20260503175004 | 23 | 39 | 4.8 | 17.7 | 0.00 | 0.00 | 0.00 | 53 | 1009.7 |
| 20260503174535 | 23 | 58 | 3.2 | 17.7 | 0.00 | 0.00 | 0.00 | 55 | 1009.7 |
| 20260503174047 | 23 | 23 | 3.2 | 14.5 | 0.00 | 0.00 | 0.00 | 55 | 1009.7 |
| 20260503173553 | 22 | 39 | 6.4 | 14.5 | 0.00 | 0.00 | 0.00 | 56 | 1009.8 |
| 20260503173024 | 22 | 327 | 3.2 | 14.5 | 0.00 | 0.00 | 0.00 | 58 | 1009.7 |
| 20260503172524 | 22 | 53 | 4.8 | 16.1 | 0.00 | 0.00 | 0.00 | 58 | 1009.7 |
| 20260503172034 | 22 | 39 | 1.6 | 14.5 | 0.00 | 0.00 | 0.00 | 59 | 1009.8 |
| 20260503171508 | 22 | 9 | 1.6 | 8.0 | 0.00 | 0.00 | 0.00 | 59 | 1009.8 |
| 20260503171013 | 22 | 346 | 1.6 | 8.0 | 0.00 | 0.00 | 0.00 | 59 | 1009.8 |
| 20260503170524 | 22 | 10 | 3.2 | 8.0 | 0.00 | 0.00 | 0.00 | 57 | 1009.8 |
| 20260503151012 | 17 | 71 | 0.0 | 3.2 | 0.00 | 0.00 | 0.00 | 81 | 1010.1 |
| 20260503150518 | 16 | 355 | 0.0 | 1.6 | 0.00 | 0.00 | 0.00 | 84 | 1010.1 |
| 20260503131032 | 11 | 254 | 0.0 | 3.2 | 0.00 | 0.00 | 0.00 | 94 | 1009.8 |
| 20260503130538 | 11 | 254 | 0.0 | 3.2 | 0.00 | 0.00 | 0.00 | 93 | 1009.8 |
| 20260503110557 | 12 | 212 | 0.0 | 1.6 | 0.00 | 0.00 | 0.00 | 88 | 1009.9 |
| 20260503081509 | 13 | 283 | 0.0 | 0.0 | 0.00 | 0.00 | 0.00 | 87 | 1010.5 |
| 20260503081007 | 13 | 283 | 0.0 | 0.0 | 0.00 | 0.00 | 0.00 | 87 | 1010.5 |
| 20260503080517 | 13 | 283 | 0.0 | 0.0 | 0.00 | 0.00 | 0.00 | 87 | 1010.5 |
| 20260503072505 | 14 | 284 | 0.0 | 1.6 | 0.00 | 0.00 | 0.00 | 86 | 1010.8 |
| 20260503072015 | 14 | 284 | 0.0 | 1.6 | 0.00 | 0.00 | 0.00 | 86 | 1010.8 |
| 20260503071545 | 14 | 269 | 0.0 | 1.6 | 0.00 | 0.00 | 0.00 | 86 | 1010.9 |
| 20260503071047 | 14 | 269 | 0.0 | 0.0 | 0.00 | 0.00 | 0.00 | 86 | 1010.9 |
| 20260503070600 | 14 | 269 | 0.0 | 0.0 | 0.00 | 0.00 | 0.00 | 86 | 1010.9 |
| 20260503055036 | 16 | 263 | 0.0 | 1.6 | 0.00 | 0.00 | 0.00 | 80 | 1010.9 |
| 20260503054514 | 16 | 220 | 0.0 | 0.0 | 0.00 | 0.00 | 0.00 | 80 | 1010.8 |
| 20260503054024 | 16 | 220 | 0.0 | 0.0 | 0.00 | 0.00 | 0.00 | 79 | 1010.8 |
| 20260503053527 | 16 | 220 | 0.0 | 0.0 | 0.00 | 0.00 | 0.00 | 78 | 1010.9 |
| 20260503053021 | 16 | 220 | 0.0 | 0.0 | 0.00 | 0.00 | 0.00 | 77 | 1010.9 |
| 20260503052533 | 16 | 220 | 0.0 | 0.0 | 0.00 | 0.00 | 0.00 | 77 | 1010.9 |
| 20260503052041 | 17 | 220 | 0.0 | 0.0 | 0.00 | 0.00 | 0.00 | 76 | 1010.8 |
| 20260503051512 | 17 | 220 | 0.0 | 0.0 | 0.00 | 0.00 | 0.00 | 76 | 1010.8 |
| 20260503051025 | 17 | 220 | 0.0 | 0.0 | 0.00 | 0.00 | 0.00 | 75 | 1010.8 |
| 20260503050529 | 17 | 220 | 0.0 | 0.0 | 0.00 | 0.00 | 0.00 | 75 | 1010.8 |
| 20260503050035 | 17 | 220 | 0.0 | 0.0 | 0.00 | 0.00 | 0.00 | 75 | 1010.7 |
| 20260503045539 | 17 | 220 | 0.0 | 0.0 | 0.00 | 0.00 | 0.00 | 74 | 1010.7 |
| 20260503045041 | 17 | 220 | 0.0 | 1.6 | 0.00 | 0.00 | 0.00 | 74 | 1010.8 |
| 20260503044514 | 17 | 220 | 0.0 | 1.6 | 0.00 | 0.00 | 0.00 | 73 | 1010.8 |
| 20260503044019 | 17 | 304 | 0.0 | 0.0 | 0.00 | 0.00 | 0.00 | 73 | 1010.7 |
| 20260503043531 | 17 | 304 | 0.0 | 0.0 | 0.00 | 0.00 | 0.00 | 73 | 1010.7 |
| 20260503043002 | 17 | 304 | 0.0 | 3.2 | 0.00 | 0.00 | 0.00 | 72 | 1010.7 |
| 20260503042505 | 17 | 304 | 0.0 | 6.4 | 0.00 | 0.00 | 0.00 | 71 | 1010.6 |
| 20260503042014 | 17 | 300 | 0.0 | 1.6 | 0.00 | 0.00 | 0.00 | 72 | 1010.6 |
| 20260503041510 | 17 | 275 | 0.0 | 8.0 | 0.00 | 0.00 | 0.00 | 71 | 1010.6 |
| 20260503041015 | 17 | 267 | 3.2 | 8.0 | 0.00 | 0.00 | 0.00 | 71 | 1010.4 |
| 20260503040523 | 17 | 41 | 0.0 | 3.2 | 0.00 | 0.00 | 0.00 | 71 | 1010.5 |
| 20260503040059 | 17 | 17 | 0.0 | 3.2 | 0.00 | 0.00 | 0.00 | 70 | 1010.5 |
| 20260503035559 | 18 | 92 | 0.0 | 4.8 | 0.00 | 0.00 | 0.00 | 70 | 1010.4 |
| 20260503035011 | 18 | 92 | 0.0 | 4.8 | 0.00 | 0.00 | 0.00 | 69 | 1010.3 |
| 20260503034507 | 18 | 355 | 0.0 | 4.8 | 0.00 | 0.00 | 0.00 | 69 | 1010.2 |
| 20260503034012 | 18 | 306 | 1.6 | 4.8 | 0.00 | 0.00 | 0.00 | 69 | 1010.1 |
| 20260503033525 | 18 | 360 | 0.0 | 6.4 | 0.00 | 0.00 | 0.00 | 69 | 1010.0 |
| 20260503033132 | 17 | 95 | 1.6 | 6.4 | 0.00 | 0.00 | 0.00 | 70 | 1009.9 |
| 20260503032516 | 17 | 275 | 1.6 | 3.2 | 0.00 | 0.00 | 0.00 | 71 | 1009.7 |
| 20260503032017 | 17 | 247 | 0.0 | 3.2 | 0.00 | 0.00 | 0.00 | 72 | 1009.6 |
| 20260503031511 | 17 | 296 | 0.0 | 4.8 | 0.00 | 0.00 | 0.00 | 72 | 1009.6 |
| 20260503031020 | 17 | 333 | 0.0 | 6.4 | 0.00 | 0.00 | 0.00 | 73 | 1009.6 |
| 20260503030530 | 17 | 275 | 0.0 | 6.4 | 0.00 | 0.00 | 0.00 | 73 | 1009.5 |
| 20260503030005 | 17 | 275 | 0.0 | 4.8 | 0.00 | 0.00 | 0.00 | 73 | 1009.6 |
| 20260503025509 | 17 | 223 | 0.0 | 4.8 | 0.00 | 0.00 | 0.00 | 73 | 1009.6 |
| 20260503025017 | 17 | 276 | 0.0 | 3.2 | 0.00 | 0.00 | 0.00 | 72 | 1009.7 |
| 20260503024543 | 17 | 250 | 0.0 | 4.8 | 0.00 | 0.00 | 0.00 | 71 | 1009.9 |
| 20260503024051 | 18 | 250 | 1.6 | 4.8 | 0.00 | 0.00 | 0.00 | 70 | 1009.9 |
| 20260503023554 | 18 | 284 | 1.6 | 4.8 | 0.00 | 0.00 | 0.00 | 70 | 1010.1 |
| 20260503023033 | 18 | 277 | 0.0 | 4.8 | 0.00 | 0.00 | 0.00 | 70 | 1010.2 |
| 20260503022537 | 18 | 280 | 0.0 | 4.8 | 0.00 | 0.00 | 0.00 | 69 | 1010.3 |
| 20260503022055 | 18 | 355 | 0.0 | 0.0 | 0.00 | 0.00 | 0.00 | 68 | 1010.5 |
| 20260503021541 | 18 | 355 | 0.0 | 4.8 | 0.00 | 0.00 | 0.00 | 68 | 1010.7 |
| 20260503021053 | 18 | 355 | 0.0 | 12.9 | 0.00 | 0.00 | 0.00 | 68 | 1010.7 |
| 20260503020557 | 18 | 108 | 3.2 | 12.9 | 0.00 | 0.00 | 0.00 | 69 | 1011.1 |
| 20260503020505 | 18 | 144 | 3.2 | 12.9 | 0.00 | 0.00 | 0.00 | 69 | 1011.2 |
| 20260503020027 | 18 | 69 | 1.6 | 11.3 | 0.00 | 0.00 | 0.00 | 69 | 1011.2 |
| 20260503015542 | 18 | 67 | 1.6 | 11.3 | 0.00 | 0.00 | 0.00 | 69 | 1011.1 |
| 20260503015045 | 18 | 118 | 1.6 | 12.9 | 0.00 | 0.00 | 0.00 | 70 | 1011.0 |
| 20260503014535 | 19 | 140 | 3.2 | 16.1 | 0.00 | 0.00 | 0.00 | 70 | 1010.8 |
| 20260503014029 | 19 | 149 | 0.0 | 14.5 | 0.00 | 0.00 | 0.00 | 69 | 1010.8 |
| 20260503013537 | 19 | 134 | 3.2 | 12.9 | 0.00 | 0.00 | 0.00 | 68 | 1010.6 |
| 20260503013021 | 19 | 76 | 1.6 | 11.3 | 0.00 | 0.00 | 0.00 | 68 | 1010.4 |
| 20260503012519 | 19 | 81 | 1.6 | 11.3 | 0.00 | 0.00 | 0.00 | 68 | 1010.4 |
| 20260503012031 | 19 | 103 | 3.2 | 6.4 | 0.00 | 0.00 | 0.00 | 67 | 1010.4 |
| 20260503011503 | 19 | 108 | 1.6 | 11.3 | 0.00 | 0.00 | 0.00 | 67 | 1010.3 |
| 20260503011007 | 20 | 109 | 3.2 | 9.7 | 0.00 | 0.00 | 0.00 | 66 | 1010.3 |
| 20260503010519 | 19 | 50 | 1.6 | 6.4 | 0.00 | 0.00 | 0.00 | 66 | 1010.3 |
| 20260503010045 | 19 | 15 | 1.6 | 8.0 | 0.00 | 0.00 | 0.00 | 65 | 1010.3 |
| 20260503005555 | 19 | 65 | 3.2 | 8.0 | 0.00 | 0.00 | 0.00 | 65 | 1010.3 |
| 20260503005003 | 20 | 63 | 3.2 | 9.7 | 0.00 | 0.00 | 0.00 | 65 | 1010.3 |
| 20260503004542 | 20 | 111 | 3.2 | 8.0 | 0.00 | 0.00 | 0.00 | 65 | 1010.3 |
| 20260503004049 | 20 | 32 | 1.6 | 8.0 | 0.00 | 0.00 | 0.00 | 66 | 1010.3 |
| 20260503003551 | 20 | 98 | 0.0 | 11.3 | 0.00 | 0.00 | 0.00 | 65 | 1010.2 |
| 20260503003021 | 20 | 67 | 1.6 | 11.3 | 0.00 | 0.00 | 0.00 | 64 | 1010.2 |
| 20260503002531 | 20 | 5 | 1.6 | 8.0 | 0.00 | 0.00 | 0.00 | 63 | 1010.2 |
| 20260503002037 | 20 | 126 | 1.6 | 8.0 | 0.00 | 0.00 | 0.00 | 64 | 1010.1 |
| 20260503001509 | 20 | 53 | 3.2 | 6.4 | 0.00 | 0.00 | 0.00 | 62 | 1010.0 |
| 20260503001018 | 20 | 57 | 1.6 | 6.4 | 0.00 | 0.00 | 0.00 | 63 | 1010.0 |
| 20260503000524 | 20 | 155 | 0.0 | 12.9 | 0.00 | 0.00 | 0.00 | 65 | 1010.0 |
| 20260503000017 | 20 | 31 | 4.8 | 14.5 | 0.00 | 0.00 | 0.00 | 62 | 1010.1 |
| 20260502235527 | 20 | 305 | 3.2 | 14.5 | 0.00 | 0.00 | 0.00 | 63 | 1010.1 |
| 20260502235029 | 20 | 329 | 4.8 | 12.9 | 0.00 | 0.00 | 0.00 | 64 | 1010.1 |
| 20260502234501 | 20 | 5 | 4.8 | 14.5 | 0.00 | 0.00 | 0.00 | 63 | 1010.1 |
| 20260502234005 | 20 | 13 | 6.4 | 14.5 | 0.00 | 0.00 | 0.00 | 65 | 1010.0 |
| 20260502233513 | 20 | 74 | 3.2 | 9.7 | 0.00 | 0.00 | 0.00 | 65 | 1010.2 |
| 20260502233041 | 20 | 57 | 4.8 | 12.9 | 0.00 | 0.00 | 0.00 | 65 | 1010.3 |
| 20260502232546 | 20 | 25 | 3.2 | 8.0 | 0.00 | 0.00 | 0.00 | 65 | 1010.3 |
| 20260502232047 | 20 | 26 | 4.8 | 8.0 | 0.00 | 0.00 | 0.00 | 65 | 1010.4 |
| 20260502231517 | 20 | 35 | 1.6 | 9.7 | 0.00 | 0.00 | 0.00 | 64 | 1010.5 |
| 20260502231022 | 20 | 57 | 1.6 | 12.9 | 0.00 | 0.00 | 0.00 | 65 | 1010.6 |
| 20260502230529 | 19 | 13 | 3.2 | 12.9 | 0.00 | 0.00 | 0.00 | 66 | 1010.7 |
| 20260502230101 | 19 | 44 | 3.2 | 14.5 | 0.00 | 0.00 | 0.00 | 68 | 1010.8 |
| 20260502225505 | 18 | 95 | 4.8 | 9.7 | 0.00 | 0.00 | 0.00 | 66 | 1010.8 |
| 20260502225011 | 20 | 70 | 3.2 | 8.0 | 0.00 | 0.00 | 0.00 | 63 | 1010.9 |
| 20260502224535 | 20 | 40 | 0.0 | 8.0 | 0.00 | 0.00 | 0.00 | 65 | 1011.0 |
| 20260502224044 | 20 | 112 | 1.6 | 8.0 | 0.00 | 0.00 | 0.00 | 63 | 1011.1 |
| 20260502223545 | 19 | 114 | 0.0 | 12.9 | 0.00 | 0.00 | 0.00 | 65 | 1011.2 |
| 20260502223017 | 18 | 5 | 3.2 | 14.5 | 0.00 | 0.00 | 0.00 | 66 | 1011.5 |
| 20260502222518 | 18 | 355 | 8.0 | 14.5 | 0.00 | 0.00 | 0.00 | 66 | 1011.5 |
| 20260502222025 | 18 | 355 | 3.2 | 9.7 | 0.00 | 0.00 | 0.00 | 66 | 1011.5 |
| 20260502221604 | 18 | 5 | 3.2 | 9.7 | 0.00 | 0.00 | 0.00 | 66 | 1011.7 |
| 20260502221058 | 18 | 88 | 4.8 | 11.3 | 0.00 | 0.00 | 0.00 | 68 | 1011.6 |
| 20260502220505 | 18 | 38 | 3.2 | 12.9 | 0.00 | 0.00 | 0.00 | 67 | 1011.7 |
| 20260502220038 | 17 | 45 | 4.8 | 14.5 | 0.00 | 0.00 | 0.00 | 67 | 1011.7 |
| 20260502215542 | 17 | 34 | 4.8 | 14.5 | 0.00 | 0.00 | 0.00 | 68 | 1011.8 |
| 20260502215049 | 17 | 103 | 3.2 | 8.0 | 0.00 | 0.00 | 0.00 | 67 | 1011.9 |
| 20260502214513 | 18 | 85 | 3.2 | 9.7 | 0.00 | 0.00 | 0.00 | 68 | 1011.9 |
| 20260502214019 | 17 | 338 | 4.8 | 12.9 | 0.00 | 0.00 | 0.00 | 68 | 1012.0 |
| 20260502213529 | 17 | 57 | 3.2 | 12.9 | 0.00 | 0.00 | 0.00 | 68 | 1012.0 |
| 20260502213100 | 17 | 42 | 3.2 | 9.7 | 0.00 | 0.00 | 0.00 | 69 | 1012.0 |
| 20260502213002 | 17 | 351 | 4.8 | 9.7 | 0.00 | 0.00 | 0.00 | 68 | 1012.1 |
| 20260502212512 | 17 | 355 | 1.6 | 9.7 | 0.00 | 0.00 | 0.00 | 69 | 1012.0 |
| 20260502212022 | 17 | 111 | 3.2 | 14.5 | 0.00 | 0.00 | 0.00 | 69 | 1012.1 |
| 20260502211557 | 17 | 98 | 4.8 | 14.5 | 0.00 | 0.00 | 0.00 | 70 | 1012.1 |
| 20260502211054 | 16 | 30 | 3.2 | 9.7 | 0.00 | 0.00 | 0.00 | 71 | 1012.2 |
| 20260502210504 | 16 | 55 | 1.6 | 6.4 | 0.00 | 0.00 | 0.00 | 70 | 1012.3 |
| 20260502205555 | 17 | 242 | 0.0 | 8.0 | 0.00 | 0.00 | 0.00 | 68 | 1012.5 |
| 20260502205004 | 16 | 9 | 3.2 | 8.0 | 0.00 | 0.00 | 0.00 | 70 | 1012.5 |
| 20260502204527 | 16 | 57 | 1.6 | 9.7 | 0.00 | 0.00 | 0.00 | 70 | 1012.6 |
| 20260502204041 | 16 | 93 | 3.2 | 9.7 | 0.00 | 0.00 | 0.00 | 70 | 1012.6 |
| 20260502203544 | 16 | 53 | 3.2 | 9.7 | 0.00 | 0.00 | 0.00 | 71 | 1012.6 |
| 20260502203015 | 16 | 19 | 3.2 | 9.7 | 0.00 | 0.00 | 0.00 | 69 | 1012.7 |
| 20260502202533 | 16 | 292 | 4.8 | 9.7 | 0.00 | 0.00 | 0.00 | 70 | 1012.7 |
| 20260502202032 | 16 | 86 | 0.0 | 9.7 | 0.00 | 0.00 | 0.00 | 71 | 1012.8 |
| 20260502201559 | 15 | 28 | 1.6 | 9.7 | 0.00 | 0.00 | 0.00 | 72 | 1012.8 |
| 20260502201009 | 15 | 11 | 6.4 | 9.7 | 0.00 | 0.00 | 0.00 | 72 | 1013.0 |
| 20260502200517 | 15 | 12 | 3.2 | 11.3 | 0.00 | 0.00 | 0.00 | 69 | 1013.0 |
| 20260502200048 | 16 | 38 | 3.2 | 8.0 | 0.00 | 0.00 | 0.00 | 70 | 1013.1 |
| 20260502195600 | 16 | 83 | 1.6 | 9.7 | 0.00 | 0.00 | 0.00 | 69 | 1013.0 |
| 20260502195100 | 15 | 72 | 4.8 | 16.1 | 0.00 | 0.00 | 0.00 | 70 | 1013.1 |
| 20260502194534 | 15 | 331 | 8.0 | 16.1 | 0.00 | 0.00 | 0.00 | 71 | 1013.4 |
| 20260502194035 | 14 | 89 | 1.6 | 9.7 | 0.00 | 0.00 | 0.00 | 71 | 1013.5 |
| 20260502193547 | 15 | 11 | 3.2 | 11.3 | 0.00 | 0.00 | 0.00 | 71 | 1013.5 |
| 20260502193018 | 15 | 348 | 1.6 | 8.0 | 0.00 | 0.00 | 0.00 | 71 | 1013.7 |
| 20260502192528 | 14 | 84 | 3.2 | 8.0 | 0.00 | 0.00 | 0.00 | 72 | 1013.7 |
| 20260502192031 | 14 | 51 | 1.6 | 9.7 | 0.00 | 0.00 | 0.00 | 71 | 1013.8 |
| 20260502191559 | 13 | 5 | 0.0 | 14.5 | 0.00 | 0.00 | 0.00 | 74 | 1013.9 |
| 20260502191012 | 13 | 86 | 4.8 | 14.5 | 0.00 | 0.00 | 0.00 | 76 | 1013.9 |
| 20260502190517 | 13 | 55 | 1.6 | 11.3 | 0.00 | 0.00 | 0.00 | 74 | 1014.0 |
| 20260502190020 | 13 | 78 | 3.2 | 11.3 | 0.00 | 0.00 | 0.00 | 75 | 1014.0 |
| 20260502185531 | 13 | 56 | 0.0 | 8.0 | 0.00 | 0.00 | 0.00 | 75 | 1013.9 |
| 20260502185035 | 13 | 272 | 3.2 | 8.0 | 0.00 | 0.00 | 0.00 | 73 | 1014.0 |
| 20260502184511 | 13 | 344 | 3.2 | 6.4 | 0.00 | 0.00 | 0.00 | 74 | 1014.0 |
| 20260502184009 | 13 | 102 | 1.6 | 6.4 | 0.00 | 0.00 | 0.00 | 76 | 1014.1 |
| 20260502183521 | 13 | 72 | 1.6 | 6.4 | 0.00 | 0.00 | 0.00 | 76 | 1014.0 |
| 20260502183047 | 12 | 71 | 0.0 | 4.8 | 0.00 | 0.00 | 0.00 | 78 | 1014.1 |
| 20260502182551 | 12 | 103 | 1.6 | 4.8 | 0.00 | 0.00 | 0.00 | 79 | 1014.0 |
| 20260502182057 | 12 | 15 | 0.0 | 3.2 | 0.00 | 0.00 | 0.00 | 79 | 1014.1 |